Simultaneous Nadir Overpasses (SNOs) Predictions

Prediction of SNOs between GOES-15 and METOP-A Satellite Orbit:

Table of predicted SNOs for the next 14.0 days since TLE Epoch: 6/29/2013
Index Date Time (GOES-15) GOES-15 Lat,Lon METOP-A Lat,Lon Distance(km) Time Diff (sec)
1 06/29/2013 06:22:47 0.09,-134.95 0.34,-133.79 132.30 80
2 06/30/2013 18:44:19 -0.06,-135.01 0.70,-138.35 380.28 80
3 07/01/2013 18:21:02 -0.08,-135.05 -0.47,-133.37 191.81 80
4 07/03/2013 06:42:43 0.05,-135.09 -0.60,-137.96 327.70 80
5 07/04/2013 06:19:26 0.07,-135.11 0.57,-132.98 243.71 80
6 07/05/2013 18:40:58 -0.05,-135.16 0.47,-137.54 270.15 80
7 07/06/2013 18:17:40 -0.07,-135.19 -0.65,-132.55 301.15 80
8 07/08/2013 06:39:22 0.04,-135.22 -0.36,-137.15 219.15 80
9 07/09/2013 06:16:03 0.07,-135.24 0.76,-132.16 351.55 80
10 07/10/2013 18:37:36 -0.04,-135.28 0.28,-136.72 163.46 80
11 07/11/2013 18:14:17 -0.07,-135.30 -0.84,-131.72 407.22 80




NCC Satellite Simultaneous Nadir Overpasses (SNOs) Prediction Service
